2024-169F (61194 NORAD) Tracking and Keplerian Element Data

This shows tracking and keplerian element data for the satellite.

Feedback or suggestion? Click here.




ElementValue
Catalog61194
Name2024-169F
Epoch Orbit342
Epoch Day286.86443584
Epoch Year2024
RAAN12.1102
Inclination97.5942
Eccentricity0.0017346
Argument of Perigee210.6531
Mean Anonmoly149.3687
Mean Motion15.11904893
Decay Rate0.00018729
L11 61194U 24169F 24286.86443584 .00018729 00000+0 10917-2 0 9993
L22 61194 97.5942 12.1102 0017346 210.6531 149.3687 15.11904893 3423



Live tracking and technical data element details for 2024-169F (NORAD 61194). 2024-169F can be tracked NOW for your location showing map with azimuth and elevation plus other details from your city location.







IsCatalogInMostPopularTable: catalog: 61194, numindb: 25
Update: records affected: 1



GetName: 61194 2024-169F

Hit Count: updated at: Wed, 04 Dec 2024 09:58:14 GMT